Cheboygan, MI

8:25 PM EST on February 05, 2016 (GMT -0500)
Cheboygan

Weather History for KSLH - May, 2013

Change the Weather History Date:

Tuesday, May 7, 2013

  Actual Average Record
Temperature  
Mean Temperature 50 °F -  
Max Temperature 66 °F - - ()
Min Temperature 35 °F - - ()
Degree Days  
Heating Degree Days 14    
Moisture  
Dew Point 34 °F    
Average Humidity 55    
Maximum Humidity 89    
Minimum Humidity 22    
Precipitation  
Precipitation 0.00 in - - ()
Sea Level Pressure  
Sea Level Pressure 30.07 in    
Wind  
Wind Speed 3 mph (ENE)    
Max Wind Speed 14 mph    
Max Gust Speed 18 mph    
Visibility 10 miles    
Events      
T = Trace of Precipitation, MM = Missing Value Source: NWS Daily Summary

Daily Weather History Graph

Daily Weather History Graph

Search for Another Location

Airport or City:

Trip Planner

Search our weather history database for the weather conditions in past years. The results will help you decide how hot, cold, wet, or windy it might be!

Date:

Astronomy

May. 07, 2013 Rise Set
Actual Time 6:16 AM EDT 8:53 PM EDT
Civil Twilight 5:43 AM EDT 9:26 PM EDT
Nautical Twilight 5:00 AM EDT 10:09 PM EDT
Astronomical Twilight 4:12 AM EDT 10:58 PM EDT
Moon 4:57 AM EDT (5/7) 6:46 PM EDT (5/7)
Length of Visible Light 15h 43m
Length of Day
14h 36m
Waning Crescent, 5% of the Moon is Illuminated
May 7
Waning Crescent
May 9
New
May 18
First Quarter
May 25
Full
May 31
Last Quarter

Hourly Weather History & Observations

Time (EDT) Temp. Dew Point Humidity Pressure Visibility Wind Dir Wind Speed Gust Speed Precip Events Conditions
12:15 AM 44.4 °F 38.5 °F 80% 30.07 in 10.0 mi Calm Calm - N/A   Clear
12:35 AM 43.7 °F 39.2 °F 84% 30.07 in 10.0 mi Calm Calm - N/A   Clear
12:55 AM 43.7 °F 38.8 °F 83% 30.07 in 10.0 mi Calm Calm - N/A   Clear
1:15 AM 42.3 °F 37.9 °F 85% 30.07 in 10.0 mi Calm Calm - N/A   Clear
1:35 AM 40.8 °F 36.9 °F 86% 30.07 in 10.0 mi Calm Calm - N/A   Clear
1:55 AM 41.0 °F 37.9 °F 89% 30.06 in 10.0 mi Calm Calm - N/A   Clear
2:15 AM 39.7 °F 36.7 °F 89% 30.06 in 10.0 mi Calm Calm - N/A   Clear
2:35 AM 39.9 °F 37.0 °F 89% 30.06 in 10.0 mi Calm Calm - N/A   Clear
2:55 AM 39.4 °F 36.3 °F 89% 30.06 in 10.0 mi Calm Calm - N/A   Clear
3:15 AM 39.2 °F 36.3 °F 89% 30.06 in 10.0 mi Calm Calm - N/A   Clear
3:35 AM 39.4 °F 36.1 °F 88% 30.06 in 10.0 mi Calm Calm - N/A   Clear
3:55 AM 40.1 °F 36.5 °F 87% 30.06 in 10.0 mi Calm Calm - N/A   Clear
4:15 AM 39.6 °F 35.6 °F 86% 30.05 in 10.0 mi Calm Calm - N/A   Clear
4:35 AM 38.1 °F 33.1 °F 82% 30.05 in 10.0 mi Calm Calm - N/A   Clear
4:55 AM 36.5 °F 33.3 °F 88% 30.05 in 10.0 mi Calm Calm - N/A   Clear
5:15 AM 38.3 °F 34.5 °F 86% 30.05 in 10.0 mi Calm Calm - N/A   Clear
5:35 AM 39.0 °F 34.0 °F 82% 30.06 in 10.0 mi Calm Calm - N/A   Clear
5:55 AM 39.9 °F 34.2 °F 80% 30.06 in 10.0 mi Calm Calm - N/A   Clear
6:15 AM 35.1 °F 32.2 °F 89% 30.07 in 10.0 mi Calm Calm - N/A   Clear
6:35 AM 39.2 °F 34.5 °F 83% 30.08 in 10.0 mi Calm Calm - N/A   Clear
6:55 AM 37.0 °F 32.9 °F 85% 30.08 in 10.0 mi Calm Calm - N/A   Clear
7:15 AM 39.9 °F 36.3 °F 87% 30.08 in 10.0 mi Calm Calm - N/A   Clear
7:35 AM 44.4 °F 39.6 °F 83% 30.09 in 10.0 mi Calm Calm - N/A   Clear
7:55 AM 46.6 °F 41.0 °F 81% 30.10 in 10.0 mi Calm Calm - N/A   Clear
8:15 AM 49.5 °F 41.2 °F 73% 30.10 in 10.0 mi ENE 4.6 mph - N/A   Clear
8:35 AM 50.2 °F 39.6 °F 67% 30.11 in 10.0 mi ENE 3.5 mph - N/A   Clear
8:55 AM 51.8 °F 37.6 °F 58% 30.12 in 10.0 mi NNE 3.5 mph - N/A   Clear
9:15 AM 53.8 °F 38.1 °F 55% 30.11 in 10.0 mi Calm Calm - N/A   Clear
9:35 AM 56.5 °F 37.4 °F 49% 30.12 in 10.0 mi NE 3.5 mph - N/A   Clear
9:55 AM 58.1 °F 38.3 °F 48% 30.12 in 10.0 mi ENE 3.5 mph - N/A   Clear
10:15 AM 59.9 °F 37.4 °F 43% 30.12 in 10.0 mi NE 4.6 mph - N/A   Clear
10:35 AM 61.7 °F 34.5 °F 36% 30.12 in 10.0 mi NE 4.6 mph - N/A   Clear
10:55 AM 62.6 °F 33.4 °F 34% 30.12 in 10.0 mi ENE 5.8 mph - N/A   Clear
11:15 AM 62.1 °F 32.2 °F 33% 30.12 in 10.0 mi ENE 6.9 mph - N/A   Clear
11:55 AM 64.8 °F 32.4 °F 30% 30.11 in 10.0 mi NE 8.1 mph - N/A   Clear
12:15 PM 64.6 °F 30.4 °F 28% 30.11 in 10.0 mi NE 8.1 mph - N/A   Clear
12:35 PM 65.8 °F 31.6 °F 28% 30.11 in 10.0 mi NE 9.2 mph - N/A   Clear
12:55 PM 66.6 °F 30.7 °F 26% 30.10 in 10.0 mi NE 11.5 mph - N/A   Clear
1:15 PM 66.9 °F 30.7 °F 26% 30.10 in 10.0 mi ENE 11.5 mph - N/A   Clear
1:35 PM 66.9 °F 30.4 °F 26% 30.09 in 10.0 mi ENE 11.5 mph - N/A   Clear
1:55 PM 66.4 °F 29.8 °F 25% 30.09 in 10.0 mi ENE 11.5 mph - N/A   Clear
2:15 PM 66.2 °F 30.9 °F 27% 30.09 in 10.0 mi NE 11.5 mph - N/A   Clear
2:35 PM 66.4 °F 31.1 °F 27% 30.08 in 10.0 mi NE 11.5 mph - N/A   Clear
2:55 PM 66.9 °F 28.4 °F 24% 30.08 in 10.0 mi NE 12.7 mph - N/A   Clear
3:15 PM 66.0 °F 28.8 °F 25% 30.07 in 10.0 mi NE 13.8 mph 18.4 mph N/A   Clear
3:35 PM 65.7 °F 31.3 °F 28% 30.07 in 10.0 mi NE 12.7 mph 18.4 mph N/A   Clear
3:55 PM 65.5 °F 30.9 °F 27% 30.06 in 10.0 mi NE 12.7 mph - N/A   Clear
4:15 PM 65.7 °F 29.5 °F 26% 30.06 in 10.0 mi NE 12.7 mph - N/A   Clear
4:35 PM 65.1 °F 28.8 °F 26% 30.05 in 10.0 mi ENE 11.5 mph - N/A   Clear
4:55 PM 64.4 °F 30.4 °F 28% 30.05 in 10.0 mi ENE 10.4 mph - N/A   Clear
5:15 PM 64.4 °F 31.6 °F 29% 30.05 in 10.0 mi ENE 9.2 mph - N/A   Clear
5:35 PM 63.1 °F 32.2 °F 31% 30.04 in 10.0 mi ENE 9.2 mph - N/A   Clear
5:55 PM 62.1 °F 33.4 °F 34% 30.04 in 10.0 mi NE 6.9 mph - N/A   Clear
6:14 PM 62.4 °F 34.7 °F 36% 30.04 in 10.0 mi ENE 9.2 mph - N/A   Clear
6:35 PM 60.1 °F 36.0 °F 41% 30.04 in 10.0 mi NE 8.1 mph - N/A   Clear
6:55 PM 60.6 °F 36.3 °F 40% 30.04 in 10.0 mi ENE 9.2 mph - N/A   Clear
7:15 PM 60.3 °F 36.9 °F 42% 30.04 in 10.0 mi NE 4.6 mph - N/A   Clear
7:35 PM 60.8 °F 37.4 °F 42% 30.03 in 10.0 mi ENE 6.9 mph - N/A   Clear
7:55 PM 61.0 °F 36.3 °F 40% 30.03 in 10.0 mi ENE 8.1 mph - N/A   Clear
8:15 PM 63.3 °F 29.1 °F 28% 30.04 in 10.0 mi East 6.9 mph - N/A   Clear
8:35 PM 64.4 °F 24.6 °F 22% 30.04 in 10.0 mi East 6.9 mph - N/A   Clear
8:55 PM 61.7 °F 25.7 °F 25% 30.04 in 10.0 mi Calm Calm - N/A   Clear
9:15 PM 57.9 °F 27.9 °F 32% 30.04 in 10.0 mi East 3.5 mph - N/A   Clear
9:35 PM 54.0 °F 32.0 °F 43% 30.05 in 10.0 mi Calm Calm - N/A   Clear
9:55 PM 51.3 °F 32.9 °F 50% 30.05 in 10.0 mi Calm Calm - N/A   Clear
10:15 PM 50.9 °F 31.8 °F 48% 30.05 in 10.0 mi Calm Calm - N/A   Clear
10:35 PM 48.9 °F 34.3 °F 57% 30.05 in 10.0 mi Calm Calm - N/A   Clear
10:55 PM 46.4 °F 34.5 °F 63% 30.05 in 10.0 mi Calm Calm - N/A   Clear
11:15 PM 45.0 °F 35.2 °F 69% 30.05 in 10.0 mi Calm Calm - N/A   Clear
11:35 PM 44.1 °F 35.2 °F 71% 30.05 in 10.0 mi Calm Calm - N/A   Clear
11:55 PM 44.8 °F 36.5 °F 73% 30.05 in 10.0 mi Calm Calm - N/A   Clear